Location: Yoder Observing Site
(32.2942°N, 83.9813°W)
Time: 10:16:24
(UTC-04:00)

ISS - Visible Passes

Search period start: 24 April 2018 00:00
Search period end: 04 May 2018 00:00
Orbit: 403 x 406 km, 51.6° (Epoch: 24 April)

Date Brightness Start Highest point End Pass type
(mag) Time Alt. Az. Time Alt. Az. Time Alt. Az.
28 Apr -2.6 06:26:56 10° SSW 06:30:00 40° SE 06:33:05 10° ENE visible
29 Apr -1.4 05:35:33 10° S 05:37:51 18° SE 05:40:09 10° E visible
30 Apr -3.7 06:18:33 10° SW 06:21:46 62° NW 06:25:00 10° NE visible
01 May -3.4 05:28:22 34° SSW 05:29:28 54° SE 05:32:40 10° NE visible
02 May -1.5 04:38:16 20° E 04:38:16 20° E 04:39:56 10° ENE visible
02 May -2.2 06:10:58 10° W 06:13:39 23° NW 06:16:21 10° NNE visible
03 May -3.4 05:20:44 42° WNW 05:21:12 46° NW 05:24:22 10° NNE visible
